Location: Newark
(7.0858°N, 171.3717°E)
Time: 22:48:13
(UTC+00:00)

Vanguard 2 - Pass Details

Date: 27 November 2020
Orbit: 553 x 2937 km, 32.9° (Epoch: 19 January)

Event Time Altitude Azimuth Distance (km) Brightness Sun altitude
Rises 19:33:21 0° 237° (WSW) 5,859 11.7 13.7°
Reaches altitude 10° 19:37:48 10° 238° (WSW) 4,490 11.2 14.7°
Maximum altitude 19:49:13 82° 325° (NW) 1,351 9.0 17.3°
Drops below altitude 10° 19:55:48 10° 52° (NE) 2,688 10.8 18.8°
Sets 19:57:52 0° 54° (NE) 3,423 11.2 19.2°
